Weather History for Erie, CO

Change the Weather History Date:

Saturday, March 3, 2012

  Actual Average (KBJC) Record (KBJC)
Temperature  
Mean Temperature 32 °F -  
Max Temperature 48 °F 45 °F 71 °F (2009)
Min Temperature 15 °F 25 °F 5 °F (2002)
Degree Days  
Heating Degree Days 34    
Moisture  
Dew Point 5 °F    
Average Humidity 31    
Maximum Humidity 79    
Minimum Humidity 18    
Precipitation  
Precipitation 0.00 in - - ()
Sea Level Pressure  
Sea Level Pressure 30.00 in    
Wind  
Wind Speed 12 mph (WNW)    
Max Wind Speed 24 mph    
Max Gust Speed 38 mph    
Visibility 10 miles    
Events      
Averages and records for this station are not official NWS values.
T = Trace of Precipitation, MM = Missing Value Source: NWS Daily Summary

Daily Weather History Graph

Daily Weather History Graph

Search for Another Location

Airport:

Trip Planner

Search our weather history database for the weather conditions in past years. The results will help you decide how hot, cold, wet, or windy it might be!

Date:

Astronomy

Mar. 03, 2012 Rise Set
Actual Time 6:29 AM MST 5:54 PM MST
Civil Twilight 6:02 AM MST 6:22 PM MST
Nautical Twilight 5:31 AM MST 6:53 PM MST
Astronomical Twilight 4:59 AM MST 7:24 PM MST
Moon 1:07 PM MST (3/3) 3:08 AM MST (3/3)
Length of Visible Light 12h 19m
Length of Day
11h 25m
Waxing Gibbous, 76% of the Moon is Illuminated
Mar 3
Waxing Gibbous
Mar 8
Full
Mar 14
Last Quarter
Mar 22
New
Mar 30
First Quarter

Hourly Weather History & Observations

Time (MST) Temp. Windchill Dew Point Humidity Pressure Visibility Wind Dir Wind Speed Gust Speed Precip Events Conditions
12:16 AM 19.4 °F - 8.6 °F 63% 29.99 in 10.0 mi Calm Calm - N/A   Clear
12:36 AM 17.6 °F - 8.6 °F 68% 29.99 in 10.0 mi Calm Calm - N/A   Clear
12:56 AM 15.8 °F - 10.4 °F 79% 30.00 in 10.0 mi Calm Calm - N/A   Clear
1:16 AM 17.6 °F - 10.4 °F 73% 30.00 in 10.0 mi Calm Calm - N/A   Clear
1:36 AM 17.6 °F - 8.6 °F 68% 30.01 in 10.0 mi Calm Calm - N/A   Clear
1:56 AM 17.6 °F 9.3 °F 10.4 °F 73% 30.01 in 10.0 mi WNW 5.8 mph - N/A   Clear
2:16 AM 28.4 °F 17.0 °F 5.0 °F 37% 30.01 in 10.0 mi NW 15.0 mph 26.5 mph N/A   Clear
2:36 AM 28.4 °F 17.5 °F 3.2 °F 34% 30.01 in 10.0 mi WNW 13.8 mph 23.0 mph N/A   Clear
2:56 AM 26.6 °F 16.2 °F 3.2 °F 37% 30.01 in 10.0 mi West 11.5 mph 24.2 mph N/A   Clear
3:16 AM 28.4 °F 16.6 °F 1.4 °F 31% 30.01 in 10.0 mi West 16.1 mph 20.7 mph N/A   Clear
3:36 AM 28.4 °F 17.5 °F 1.4 °F 31% 30.01 in 10.0 mi West 13.8 mph 18.4 mph N/A   Mostly Cloudy
3:56 AM 28.4 °F 18.0 °F 1.4 °F 31% 30.01 in 10.0 mi West 12.7 mph - N/A   Overcast
4:16 AM 28.4 °F 18.0 °F 1.4 °F 31% 30.01 in 10.0 mi West 12.7 mph 26.5 mph N/A   Overcast
4:56 AM 28.4 °F 18.5 °F 1.4 °F 31% 30.02 in 10.0 mi West 11.5 mph - N/A   Scattered Clouds
5:16 AM 28.4 °F 19.7 °F -0.4 °F 29% 30.02 in 10.0 mi West 9.2 mph - N/A   Clear
5:36 AM 28.4 °F 19.1 °F -0.4 °F 29% 30.02 in 10.0 mi West 10.4 mph 24.2 mph N/A   Clear
5:56 AM 28.4 °F 20.4 °F -0.4 °F 29% 30.01 in 10.0 mi WSW 8.1 mph - N/A   Clear
6:16 AM 28.4 °F 19.1 °F -0.4 °F 29% 30.02 in 10.0 mi West 10.4 mph 18.4 mph N/A   Clear
6:36 AM 30.2 °F 19.8 °F 1.4 °F 29% 30.03 in 10.0 mi West 13.8 mph 27.6 mph N/A   Clear
6:56 AM 30.2 °F 17.4 °F 1.4 °F 29% 30.03 in 10.0 mi WNW 20.7 mph 26.5 mph N/A   Clear
7:16 AM 30.2 °F 17.4 °F 1.4 °F 29% 30.04 in 10.0 mi West 20.7 mph 28.8 mph N/A   Clear
7:36 AM 32.0 °F 20.1 °F 1.4 °F 27% 30.04 in 10.0 mi West 19.6 mph 24.2 mph N/A   Clear
7:56 AM 32.0 °F 20.8 °F 1.4 °F 27% 30.04 in 10.0 mi West 17.3 mph 26.5 mph N/A   Clear
8:16 AM 32.0 °F 23.0 °F 1.4 °F 27% 30.04 in 10.0 mi West 11.5 mph - N/A   Clear
8:36 AM 32.0 °F 25.6 °F -0.4 °F 25% 30.04 in 10.0 mi West 6.9 mph - N/A   Clear
8:56 AM 35.6 °F 25.2 °F 1.4 °F 24% 30.04 in 10.0 mi West 18.4 mph 21.9 mph N/A   Clear
9:16 AM 35.6 °F 25.5 °F 1.4 °F 24% 30.04 in 10.0 mi WNW 17.3 mph 32.2 mph N/A   Clear
9:36 AM 35.6 °F 24.2 °F 1.4 °F 24% 30.03 in 10.0 mi WNW 21.9 mph 27.6 mph N/A   Clear
9:56 AM 37.4 °F 27.2 °F 3.2 °F 24% 30.03 in 10.0 mi WNW 19.6 mph 26.5 mph N/A   Clear
10:16 AM 37.4 °F 26.9 °F 3.2 °F 24% 30.02 in 10.0 mi WNW 20.7 mph 29.9 mph N/A   Clear
10:36 AM 39.2 °F 29.6 °F 3.2 °F 22% 30.02 in 10.0 mi WNW 19.6 mph 31.1 mph N/A   Scattered Clouds
10:56 AM 41.0 °F 31.6 °F 3.2 °F 21% 30.01 in 10.0 mi WNW 20.7 mph 26.5 mph N/A   Scattered Clouds
11:16 AM 42.8 °F 35.1 °F 3.2 °F 19% 30.01 in 10.0 mi NW 16.1 mph 26.5 mph N/A   Mostly Cloudy
11:36 AM 42.8 °F 34.8 °F 5.0 °F 21% 30.01 in 10.0 mi West 17.3 mph 29.9 mph N/A   Scattered Clouds
11:56 AM 42.8 °F 34.5 °F 5.0 °F 21% 30.01 in 10.0 mi WNW 18.4 mph 24.2 mph N/A   Mostly Cloudy
12:16 PM 44.6 °F 36.4 °F 5.0 °F 20% 30.00 in 10.0 mi NW 20.7 mph 28.8 mph N/A   Overcast
12:36 PM 44.6 °F 36.4 °F 5.0 °F 20% 30.00 in 10.0 mi WNW 20.7 mph 26.5 mph N/A   Overcast
12:56 PM 44.6 °F 35.9 °F 3.2 °F 18% 29.99 in 10.0 mi WNW 23.0 mph 27.6 mph N/A   Scattered Clouds
1:16 PM 44.6 °F 36.6 °F 5.0 °F 20% 29.98 in 10.0 mi WNW 19.6 mph 29.9 mph N/A   Clear
1:36 PM 46.4 °F 38.7 °F 5.0 °F 18% 29.97 in 10.0 mi NW 20.7 mph 27.6 mph N/A   Clear
1:56 PM 46.4 °F 38.3 °F 5.0 °F 18% 29.97 in 10.0 mi NW 23.0 mph 32.2 mph N/A   Clear
2:16 PM 46.4 °F 39.8 °F 5.0 °F 18% 29.97 in 10.0 mi WNW 16.1 mph 27.6 mph N/A   Clear
2:36 PM 46.4 °F 39.2 °F 6.8 °F 20% 29.97 in 10.0 mi WNW 18.4 mph 26.5 mph N/A   Clear
2:56 PM 46.4 °F 39.2 °F 8.6 °F 22% 29.96 in 10.0 mi NW 18.4 mph 26.5 mph N/A   Clear
3:16 PM 48.2 °F - 6.8 °F 19% 29.97 in 10.0 mi NW 18.4 mph 27.6 mph N/A   Clear
3:36 PM 46.4 °F 38.1 °F 6.8 °F 20% 29.98 in 10.0 mi WNW 24.2 mph 32.2 mph N/A   Clear
3:56 PM 44.6 °F 35.9 °F 8.6 °F 23% 29.97 in 10.0 mi WNW 23.0 mph 36.8 mph N/A   Clear
4:16 PM 42.8 °F 33.3 °F 10.4 °F 27% 29.98 in 10.0 mi West 24.2 mph 34.5 mph N/A   Clear
4:36 PM 42.8 °F 33.3 °F 10.4 °F 27% 29.97 in 10.0 mi West 24.2 mph 38.0 mph N/A   Clear
4:56 PM 42.8 °F 33.5 °F 10.4 °F 27% 29.96 in 10.0 mi West 23.0 mph 28.8 mph N/A   Clear
5:16 PM 42.8 °F 33.5 °F 10.4 °F 27% 29.95 in 10.0 mi West 23.0 mph 29.9 mph N/A   Clear
5:36 PM 41.0 °F 31.4 °F 12.2 °F 31% 29.95 in 10.0 mi West 21.9 mph 33.4 mph N/A   Clear
5:56 PM 41.0 °F 31.6 °F 12.2 °F 31% 29.96 in 10.0 mi West 20.7 mph 26.5 mph N/A   Clear
6:16 PM 41.0 °F 32.8 °F 12.2 °F 31% 29.96 in 10.0 mi West 16.1 mph 27.6 mph N/A   Clear
6:36 PM 41.0 °F 32.5 °F 12.2 °F 31% 29.96 in 10.0 mi West 17.3 mph 23.0 mph N/A   Clear
6:56 PM 41.0 °F 33.1 °F 12.2 °F 31% 29.96 in 10.0 mi WSW 15.0 mph 21.9 mph N/A   Clear
7:16 PM 41.0 °F 32.2 °F 12.2 °F 31% 29.95 in 10.0 mi West 18.4 mph 26.5 mph N/A   Clear
7:36 PM 41.0 °F 31.9 °F 12.2 °F 31% 29.94 in 10.0 mi West 19.6 mph 26.5 mph N/A   Clear
7:56 PM 42.8 °F 34.8 °F 14.0 °F 31% 29.96 in 10.0 mi West 17.3 mph 34.5 mph N/A   Clear
8:16 PM 42.8 °F 34.5 °F 14.0 °F 31% 29.96 in 10.0 mi West 18.4 mph 32.2 mph N/A   Clear
8:36 PM 42.8 °F 35.4 °F 14.0 °F 31% 29.96 in 10.0 mi West 15.0 mph 25.3 mph N/A   Clear
8:56 PM 42.8 °F 35.4 °F 14.0 °F 31% 29.96 in 10.0 mi West 15.0 mph 23.0 mph N/A   Clear
9:16 PM 42.8 °F 36.2 °F 14.0 °F 31% 29.96 in 10.0 mi West 12.7 mph 19.6 mph N/A   Clear
9:36 PM 42.8 °F 40.1 °F 14.0 °F 31% 29.96 in 10.0 mi West 4.6 mph - N/A   Clear
9:56 PM 42.8 °F 36.2 °F 14.0 °F 31% 29.97 in 10.0 mi West 12.7 mph 21.9 mph N/A   Clear
10:16 PM 42.8 °F 36.2 °F 15.8 °F 34% 29.96 in 10.0 mi West 12.7 mph 19.6 mph N/A   Clear
10:36 PM 42.8 °F 35.4 °F 15.8 °F 34% 29.96 in 10.0 mi West 15.0 mph 19.6 mph N/A   Clear
10:56 PM 42.8 °F 35.1 °F 15.8 °F 34% 29.95 in 10.0 mi West 16.1 mph 21.9 mph N/A   Clear
11:16 PM 42.8 °F 33.8 °F 17.6 °F 36% 29.94 in 10.0 mi West 21.9 mph 31.1 mph N/A   Clear
11:36 PM 42.8 °F 34.0 °F 17.6 °F 36% 29.94 in 10.0 mi WNW 20.7 mph 25.3 mph N/A   Clear
11:56 PM 42.8 °F 33.8 °F 17.6 °F 36% 29.94 in 10.0 mi WNW 21.9 mph 33.4 mph N/A   Clear